Location: ?ern� Novina
(50.6762°N, 14.8696°E)
Time: 17:50:56
(UTC+00:00)

Terra - Pass Details

Date: 03 March 2021
Orbit: 701 x 703 km, 98.2° (Epoch: 13 April)

Event Time Altitude Azimuth Distance (km) Brightness Sun altitude
Exits shadow 19:42:41 17° 20° (NNE) 1,770 3.9 -28.1°
Drops below altitude 10° 19:44:04 10° 7° (N) 2,184 4.6 -28.3°
Sets 19:46:39 0° 355° (N) 3,107 5.6 -28.7°
